| time (UTC) | temp F | wind direction | speed MPH | gust MPH | rain 1hr in | rain 24hr in | rain mn in | humidity % | barometer mb |
| 20260505200915 | 51 | 42 | 5.0 | 7.0 | 0.00 | 0.85 | 0.85 | 90 | 1008.2 |
| 20260505200412 | 51 | 18 | 5.0 | 7.0 | 0.00 | 0.85 | 0.85 | 90 | 1008.3 |
| 20260505195907 | 51 | 264 | 5.0 | 8.0 | 0.00 | 0.85 | 0.85 | 90 | 1008.3 |
| 20260505195405 | 52 | 263 | 0.0 | 1.0 | 0.00 | 0.85 | 0.85 | 91 | 1007.8 |
| 20260505194902 | 52 | 281 | 7.0 | 10.0 | 0.00 | 0.85 | 0.85 | 91 | 1008.0 |
| 20260505194400 | 52 | 126 | 2.0 | 3.0 | 0.00 | 0.85 | 0.85 | 91 | 1008.0 |
| 20260505193900 | 52 | 60 | 1.0 | 3.0 | 0.00 | 0.85 | 0.85 | 90 | 1008.1 |
| 20260505193358 | 52 | 263 | 3.0 | 4.0 | 0.00 | 0.85 | 0.85 | 89 | 1008.1 |
| 20260505192855 | 52 | 221 | 2.0 | 4.0 | 0.00 | 0.85 | 0.85 | 90 | 1008.1 |
| 20260505192354 | 52 | 290 | 3.0 | 7.0 | 0.00 | 0.85 | 0.85 | 89 | 1007.8 |
| 20260505191851 | 52 | 334 | 4.0 | 5.0 | 0.00 | 0.85 | 0.85 | 89 | 1007.9 |
| 20260505191349 | 53 | 296 | 3.0 | 5.0 | 0.00 | 0.85 | 0.85 | 89 | 1007.5 |
| 20260505190846 | 53 | 109 | 5.0 | 11.0 | 0.00 | 0.85 | 0.85 | 88 | 1007.5 |
| 20260505190341 | 53 | 199 | 3.0 | 5.0 | 0.00 | 0.85 | 0.85 | 88 | 1007.6 |
| 20260505185837 | 53 | 295 | 4.0 | 5.0 | 0.00 | 0.85 | 0.85 | 88 | 1007.5 |
| 20260505185334 | 53 | 235 | 1.0 | 1.0 | 0.00 | 0.85 | 0.85 | 88 | 1007.7 |
| 20260505184830 | 53 | 337 | 6.0 | 8.0 | 0.00 | 0.85 | 0.85 | 89 | 1007.4 |
| 20260505184327 | 53 | 242 | 0.0 | 1.0 | 0.00 | 0.85 | 0.85 | 90 | 1007.8 |
| 20260505183824 | 53 | 26 | 5.0 | 10.0 | 0.00 | 0.85 | 0.85 | 88 | 1007.8 |
| 20260505183321 | 53 | 222 | 2.0 | 3.0 | 0.00 | 0.85 | 0.85 | 89 | 1008.0 |
| 20260505182818 | 53 | 180 | 3.0 | 4.0 | 0.00 | 0.85 | 0.85 | 89 | 1007.7 |
| 20260505182314 | 54 | 8 | 6.0 | 7.0 | 0.00 | 0.85 | 0.85 | 89 | 1007.7 |
| 20260505181811 | 54 | 322 | 2.0 | 4.0 | 0.00 | 0.85 | 0.85 | 89 | 1007.5 |
| 20260505181309 | 54 | 294 | 3.0 | 5.0 | 0.00 | 0.85 | 0.85 | 89 | 1007.4 |
| 20260505180805 | 54 | 140 | 2.0 | 4.0 | 0.00 | 0.85 | 0.85 | 90 | 1007.2 |
| 20260505180301 | 54 | 29 | 4.0 | 5.0 | 0.05 | 0.85 | 0.85 | 90 | 1007.2 |
| 20260505175758 | 54 | 56 | 5.0 | 7.0 | 0.05 | 0.85 | 0.85 | 90 | 1006.9 |
| 20260505175254 | 54 | 124 | 5.0 | 5.0 | 0.00 | 0.84 | 0.84 | 90 | 1007.4 |
| 20260505174751 | 54 | 111 | 9.0 | 11.0 | 0.00 | 0.84 | 0.84 | 90 | 1007.1 |
| 20260505174248 | 54 | 123 | 5.0 | 8.0 | 0.00 | 0.84 | 0.84 | 90 | 1007.3 |
| 20260505173744 | 54 | 70 | 3.0 | 5.0 | 0.00 | 0.84 | 0.84 | 91 | 1007.2 |
| 20260505173241 | 54 | 266 | 2.0 | 3.0 | 0.00 | 0.84 | 0.84 | 91 | 1007.3 |
| 20260505172738 | 54 | 36 | 4.0 | 7.0 | 0.00 | 0.84 | 0.84 | 91 | 1007.1 |
| 20260505172235 | 54 | 108 | 3.0 | 4.0 | 0.00 | 0.84 | 0.84 | 92 | 1007.0 |
| 20260505171735 | 54 | 16 | 5.0 | 7.0 | 0.00 | 0.84 | 0.84 | 92 | 1006.9 |
| 20260505171232 | 54 | 256 | 5.0 | 8.0 | 0.00 | 0.84 | 0.84 | 92 | 1007.1 |
| 20260505170729 | 54 | 123 | 6.0 | 8.0 | 0.00 | 0.84 | 0.84 | 92 | 1006.9 |
| 20260505170226 | 54 | 283 | 3.0 | 4.0 | 0.00 | 0.84 | 0.84 | 92 | 1007.0 |
| 20260505165721 | 54 | 20 | 4.0 | 5.0 | 0.00 | 0.84 | 0.84 | 92 | 1007.0 |
| 20260505165217 | 55 | 268 | 3.0 | 3.0 | 0.00 | 0.84 | 0.84 | 93 | 1007.1 |
| 20260505164713 | 55 | 89 | 3.0 | 4.0 | 0.00 | 0.84 | 0.84 | 93 | 1006.8 |
| 20260505164210 | 55 | 47 | 7.0 | 10.0 | 0.00 | 0.84 | 0.84 | 93 | 1007.0 |
| 20260505163708 | 55 | 32 | 1.0 | 1.0 | 0.00 | 0.84 | 0.84 | 93 | 1006.8 |
| 20260505163206 | 55 | 31 | 3.0 | 4.0 | 0.00 | 0.84 | 0.84 | 93 | 1007.0 |
| 20260505162703 | 55 | 318 | 1.0 | 3.0 | 0.00 | 0.84 | 0.84 | 93 | 1006.9 |
| 20260505162201 | 55 | 223 | 2.0 | 4.0 | 0.00 | 0.84 | 0.84 | 93 | 1006.8 |
| 20260505161657 | 55 | 59 | 5.0 | 8.0 | 0.00 | 0.84 | 0.84 | 93 | 1006.9 |
| 20260505161154 | 55 | 44 | 2.0 | 5.0 | 0.00 | 0.84 | 0.84 | 93 | 1006.9 |
| 20260505160652 | 55 | 0 | 8.0 | 11.0 | 0.00 | 0.84 | 0.84 | 93 | 1006.6 |
| 20260505160150 | 56 | 348 | 4.0 | 10.0 | 0.00 | 0.84 | 0.84 | 95 | 1006.4 |
| 20260505153129 | 57 | 314 | 1.0 | 1.0 | 0.00 | 0.84 | 0.84 | 95 | 1006.3 |
| 20260505152625 | 57 | 284 | 3.0 | 4.0 | 0.00 | 0.84 | 0.84 | 95 | 1006.2 |
| 20260505152121 | 57 | 134 | 5.0 | 5.0 | 0.00 | 0.84 | 0.84 | 95 | 1006.2 |
| 20260505151617 | 58 | 71 | 0.0 | 1.0 | 0.00 | 0.84 | 0.84 | 95 | 1006.1 |
| 20260505151114 | 58 | 287 | 1.0 | 1.0 | 0.00 | 0.84 | 0.84 | 96 | 1006.1 |
| 20260505150610 | 58 | 231 | 0.0 | 1.0 | 0.00 | 0.84 | 0.84 | 96 | 1006.1 |
| 20260505150108 | 58 | 345 | 4.0 | 5.0 | 0.00 | 0.84 | 0.84 | 96 | 1005.9 |
| 20260505140536 | 60 | 81 | 1.0 | 1.0 | 0.00 | 0.84 | 0.84 | 99 | 1005.9 |
| 20260505124949 | 60 | 102 | 1.0 | 1.0 | 0.00 | 0.84 | 0.84 | 99 | 1005.7 |
| 20260505124446 | 60 | 78 | 0.0 | 0.0 | 0.00 | 0.84 | 0.84 | 99 | 1005.6 |
| 20260505123942 | 60 | 195 | 2.0 | 3.0 | 0.07 | 0.84 | 0.84 | 99 | 1005.6 |
| 20260505123439 | 60 | 18 | 1.0 | 1.0 | 0.07 | 0.84 | 0.84 | 99 | 1005.7 |
| 20260505122935 | 60 | 340 | 0.0 | 1.0 | 0.00 | 0.83 | 0.83 | 99 | 1005.6 |
| 20260505122432 | 60 | 265 | 1.0 | 1.0 | 0.00 | 0.83 | 0.83 | 99 | 1005.6 |
| 20260505121929 | 60 | 291 | 0.0 | 0.0 | 0.00 | 0.83 | 0.83 | 99 | 1005.3 |
| 20260505121426 | 60 | 64 | 2.0 | 4.0 | 0.05 | 0.83 | 0.83 | 99 | 1005.0 |
| 20260505120922 | 60 | 201 | 2.0 | 3.0 | 0.05 | 0.83 | 0.83 | 99 | 1005.2 |
| 20260505120418 | 60 | 239 | 0.0 | 0.0 | 0.00 | 0.82 | 0.82 | 99 | 1005.0 |
| 20260505115917 | 60 | 215 | 0.0 | 1.0 | 0.00 | 0.82 | 0.82 | 99 | 1005.0 |
| 20260505115414 | 60 | 305 | 0.0 | 0.0 | 0.00 | 0.82 | 0.82 | 99 | 1005.3 |
| 20260505114912 | 60 | 285 | 1.0 | 3.0 | 0.00 | 0.82 | 0.82 | 99 | 1004.9 |
| 20260505114408 | 60 | 104 | 4.0 | 7.0 | 0.00 | 0.82 | 0.82 | 99 | 1004.7 |
| 20260505113905 | 60 | 342 | 1.0 | 1.0 | 0.00 | 0.82 | 0.82 | 99 | 1004.7 |
| 20260505113402 | 60 | 292 | 1.0 | 1.0 | 0.00 | 0.82 | 0.82 | 99 | 1004.8 |
| 20260505112857 | 61 | 220 | 3.0 | 4.0 | 0.00 | 0.82 | 0.82 | 99 | 1004.7 |
| 20260505112355 | 60 | 7 | 1.0 | 1.0 | 0.00 | 0.82 | 0.82 | 99 | 1004.4 |
| 20260505111850 | 61 | 258 | 0.0 | 0.0 | 0.00 | 0.82 | 0.82 | 99 | 1004.4 |
| 20260505111346 | 61 | 313 | 1.0 | 1.0 | 0.00 | 0.82 | 0.82 | 99 | 1004.4 |
| 20260505110842 | 60 | 329 | 2.0 | 3.0 | 0.00 | 0.82 | 0.82 | 99 | 1004.5 |
| 20260505110340 | 61 | 273 | 1.0 | 1.0 | 0.00 | 0.82 | 0.82 | 99 | 1004.5 |
| 20260505101815 | 61 | 200 | 4.0 | 5.0 | 0.00 | 0.82 | 0.82 | 99 | 1004.4 |
| 20260505101310 | 61 | 204 | 2.0 | 3.0 | 0.00 | 0.82 | 0.82 | 99 | 1004.4 |
| 20260505100806 | 61 | 343 | 0.0 | 1.0 | 0.00 | 0.82 | 0.82 | 99 | 1004.5 |
| 20260505100303 | 61 | 202 | 3.0 | 3.0 | 0.00 | 0.82 | 0.82 | 99 | 1004.5 |
| 20260505095759 | 61 | 164 | 2.0 | 4.0 | 0.00 | 0.82 | 0.82 | 99 | 1004.5 |
| 20260505095257 | 61 | 172 | 2.0 | 3.0 | 0.00 | 0.82 | 0.82 | 99 | 1004.4 |
| 20260505094752 | 61 | 200 | 0.0 | 0.0 | 0.00 | 0.82 | 0.82 | 99 | 1004.6 |
| 20260505094249 | 61 | 205 | 4.0 | 4.0 | 0.00 | 0.82 | 0.82 | 99 | 1004.9 |
| 20260505093744 | 61 | 206 | 3.0 | 4.0 | 0.00 | 0.82 | 0.82 | 99 | 1005.0 |
| 20260505093242 | 61 | 208 | 2.0 | 3.0 | 0.07 | 0.82 | 0.82 | 99 | 1005.0 |
| 20260505092739 | 61 | 161 | 2.0 | 3.0 | 0.12 | 0.82 | 0.82 | 99 | 1005.0 |
| 20260505092238 | 61 | 183 | 3.0 | 3.0 | 0.05 | 0.81 | 0.81 | 99 | 1005.4 |
| 20260505091734 | 61 | 337 | 2.0 | 3.0 | 0.00 | 0.80 | 0.80 | 99 | 1005.4 |
| 20260505091233 | 61 | 270 | 2.0 | 3.0 | 0.00 | 0.80 | 0.80 | 98 | 1005.3 |
| 20260505090730 | 61 | 212 | 2.0 | 3.0 | 0.07 | 0.80 | 0.80 | 98 | 1005.3 |
| 20260505090228 | 61 | 146 | 1.0 | 1.0 | 0.07 | 0.80 | 0.80 | 98 | 1005.2 |
| 20260505085725 | 61 | 132 | 3.0 | 4.0 | 0.05 | 0.79 | 0.79 | 98 | 1005.2 |
| 20260505085223 | 61 | 202 | 2.0 | 3.0 | 0.12 | 0.79 | 0.79 | 98 | 1005.1 |
| 20260505084720 | 61 | 205 | 2.0 | 3.0 | 0.19 | 0.78 | 0.78 | 98 | 1004.9 |
| 20260505084219 | 61 | 52 | 1.0 | 4.0 | 0.12 | 0.77 | 0.77 | 98 | 1005.0 |
| 20260505083716 | 61 | 160 | 4.0 | 5.0 | 0.12 | 0.75 | 0.75 | 98 | 1005.1 |
| 20260505083213 | 61 | 239 | 0.0 | 1.0 | 0.12 | 0.75 | 0.75 | 98 | 1005.0 |
| 20260505082708 | 61 | 304 | 1.0 | 1.0 | 0.00 | 0.73 | 0.73 | 98 | 1005.4 |
| 20260505082206 | 61 | 179 | 4.0 | 4.0 | 0.42 | 0.73 | 0.73 | 98 | 1005.7 |
| 20260505081701 | 61 | 221 | 1.0 | 1.0 | 0.78 | 0.73 | 0.73 | 98 | 1005.7 |
| 20260505081159 | 61 | 258 | 0.0 | 0.0 | 0.54 | 0.67 | 0.67 | 98 | 1005.6 |
| 20260505080656 | 61 | 165 | 2.0 | 3.0 | 0.19 | 0.60 | 0.60 | 98 | 1005.9 |
| 20260505080152 | 61 | 227 | 1.0 | 1.0 | 0.24 | 0.58 | 0.58 | 98 | 1006.3 |
| 20260505075648 | 61 | 279 | 2.0 | 3.0 | 0.24 | 0.57 | 0.57 | 97 | 1006.4 |
| 20260505075145 | 61 | 348 | 2.0 | 3.0 | 0.07 | 0.53 | 0.53 | 97 | 1005.2 |
| 20260505074642 | 61 | 227 | 1.0 | 1.0 | 0.19 | 0.53 | 0.53 | 97 | 1005.6 |
| 20260505074139 | 61 | 127 | 0.0 | 1.0 | 0.12 | 0.52 | 0.52 | 97 | 1005.1 |
| 20260505073637 | 61 | 103 | 1.0 | 1.0 | 0.12 | 0.50 | 0.50 | 97 | 1005.7 |
| 20260505073135 | 61 | 221 | 1.0 | 1.0 | 0.17 | 0.50 | 0.50 | 97 | 1005.9 |
| 20260505072630 | 61 | 167 | 2.0 | 3.0 | 0.19 | 0.49 | 0.49 | 97 | 1005.8 |
| 20260505072127 | 61 | 121 | 2.0 | 3.0 | 0.12 | 0.47 | 0.47 | 97 | 1006.4 |
| 20260505071622 | 61 | 263 | 0.0 | 1.0 | 0.24 | 0.46 | 0.46 | 96 | 1007.1 |
| 20260505071120 | 61 | 284 | 1.0 | 1.0 | 0.50 | 0.45 | 0.45 | 96 | 1006.5 |
| 20260505070617 | 61 | 204 | 0.0 | 1.0 | 0.59 | 0.42 | 0.42 | 96 | 1006.3 |
| 20260505070113 | 61 | 232 | 1.0 | 1.0 | 0.59 | 0.38 | 0.38 | 96 | 1007.5 |
| 20260505065609 | 61 | 291 | 0.0 | 1.0 | 0.54 | 0.32 | 0.32 | 96 | 1007.6 |
| 20260505065106 | 61 | 285 | 1.0 | 1.0 | 0.42 | 0.27 | 0.27 | 95 | 1007.8 |
| 20260505064603 | 61 | 280 | 2.0 | 3.0 | 0.66 | 0.24 | 0.24 | 95 | 1007.2 |
| 20260505064102 | 61 | 284 | 2.0 | 4.0 | 0.78 | 0.20 | 0.20 | 94 | 1007.3 |
| 20260505063558 | 61 | 295 | 2.0 | 3.0 | 0.35 | 0.12 | 0.12 | 93 | 1007.5 |
| 20260505063054 | 62 | 292 | 2.0 | 3.0 | 0.12 | 0.07 | 0.07 | 93 | 1007.3 |
| 20260505062551 | 62 | 340 | 3.0 | 3.0 | 0.19 | 0.06 | 0.06 | 91 | 1006.5 |
| 20260505062048 | 62 | 274 | 0.0 | 1.0 | 0.19 | 0.05 | 0.05 | 90 | 1005.9 |
| 20260505061546 | 62 | 170 | 4.0 | 5.0 | 0.19 | 0.04 | 0.04 | 89 | 1005.2 |
| 20260505061043 | 63 | 107 | 3.0 | 4.0 | 0.05 | 0.02 | 0.02 | 86 | 1005.6 |
| 20260505060541 | 64 | 229 | 4.0 | 4.0 | 0.00 | 0.01 | 0.01 | 82 | 1005.5 |
| 20260505060037 | 64 | 211 | 1.0 | 1.0 | 0.07 | 0.01 | 0.01 | 81 | 1005.1 |
| 20260505055532 | 64 | 196 | 5.0 | 7.0 | 0.07 | 0.01 | 0.01 | 80 | 1005.0 |
| 20260505055030 | 65 | 185 | 3.0 | 5.0 | 0.00 | 0.00 | 0.00 | 79 | 1004.5 |
| 20260505054527 | 65 | 85 | 1.0 | 3.0 | 0.00 | 0.00 | 0.00 | 79 | 1004.5 |
| 20260505054025 | 65 | 292 | 1.0 | 3.0 | 0.00 | 0.00 | 0.00 | 78 | 1004.6 |
| 20260505053522 | 65 | 173 | 5.0 | 5.0 | 0.00 | 0.00 | 0.00 | 76 | 1004.9 |
| 20260505053018 | 66 | 220 | 2.0 | 3.0 | 0.00 | 0.00 | 0.00 | 75 | 1005.0 |
| 20260505052516 | 66 | 84 | 2.0 | 3.0 | 0.00 | 0.00 | 0.00 | 73 | 1005.0 |
| 20260505052013 | 67 | 88 | 2.0 | 4.0 | 0.00 | 0.00 | 0.00 | 74 | 1005.4 |
| 20260505051509 | 67 | 145 | 6.0 | 7.0 | 0.00 | 0.00 | 0.00 | 70 | 1005.3 |
| 20260505051008 | 67 | 212 | 2.0 | 4.0 | 0.00 | 0.00 | 0.00 | 69 | 1005.6 |
| 20260505050506 | 67 | 204 | 7.0 | 8.0 | 0.00 | 0.00 | 0.00 | 69 | 1005.2 |
| 20260505041433 | 68 | 45 | 4.0 | 5.0 | 0.00 | 0.00 | 0.00 | 68 | 1005.1 |
| 20260505040931 | 68 | 157 | 6.0 | 8.0 | 0.00 | 0.00 | 0.00 | 68 | 1005.3 |
| 20260505040428 | 68 | 156 | 3.0 | 4.0 | 0.00 | 0.00 | 0.00 | 69 | 1005.3 |
| 20260505035924 | 67 | 157 | 2.0 | 3.0 | 0.00 | 0.00 | 0.00 | 69 | 1005.5 |
| 20260505035421 | 67 | 195 | 3.0 | 5.0 | 0.00 | 0.00 | 0.00 | 71 | 1005.5 |
| 20260505034918 | 67 | 152 | 4.0 | 5.0 | 0.00 | 0.00 | 0.00 | 70 | 1005.6 |
| 20260505034414 | 67 | 185 | 1.0 | 1.0 | 0.00 | 0.00 | 0.00 | 71 | 1005.9 |
| 20260505033912 | 67 | 196 | 2.0 | 3.0 | 0.00 | 0.00 | 0.00 | 71 | 1005.8 |
| 20260505033408 | 67 | 194 | 2.0 | 3.0 | 0.00 | 0.00 | 0.00 | 71 | 1005.9 |
| 20260505032907 | 67 | 225 | 0.0 | 1.0 | 0.00 | 0.00 | 0.00 | 71 | 1006.1 |
| 20260505032402 | 67 | 200 | 2.0 | 4.0 | 0.00 | 0.00 | 0.00 | 72 | 1006.1 |
| 20260505031859 | 67 | 215 | 0.0 | 1.0 | 0.00 | 0.00 | 0.00 | 71 | 1006.0 |
| 20260505031356 | 68 | 233 | 0.0 | 0.0 | 0.00 | 0.00 | 0.00 | 70 | 1005.9 |
| 20260505030854 | 67 | 191 | 2.0 | 3.0 | 0.00 | 0.00 | 0.00 | 70 | 1005.9 |
| 20260505030349 | 67 | 203 | 1.0 | 1.0 | 0.00 | 0.00 | 0.00 | 71 | 1006.0 |
| 20260505025845 | 67 | 196 | 2.0 | 3.0 | 0.00 | 0.00 | 0.00 | 70 | 1005.9 |
| 20260505025343 | 67 | 196 | 1.0 | 1.0 | 0.00 | 0.00 | 0.00 | 70 | 1006.1 |
| 20260505024841 | 67 | 190 | 2.0 | 3.0 | 0.00 | 0.00 | 0.00 | 70 | 1005.8 |
| 20260505024339 | 66 | 221 | 1.0 | 1.0 | 0.00 | 0.00 | 0.00 | 71 | 1005.9 |
| 20260505023835 | 66 | 176 | 1.0 | 1.0 | 0.00 | 0.00 | 0.00 | 73 | 1005.8 |
| 20260505023332 | 67 | 230 | 0.0 | 0.0 | 0.00 | 0.00 | 0.00 | 73 | 1005.5 |
| 20260505022830 | 68 | 198 | 0.0 | 1.0 | 0.00 | 0.00 | 0.00 | 69 | 1005.7 |
| 20260505022326 | 68 | 219 | 0.0 | 0.0 | 0.00 | 0.00 | 0.00 | 70 | 1005.6 |
| 20260505021824 | 68 | 219 | 2.0 | 3.0 | 0.00 | 0.00 | 0.00 | 69 | 1005.6 |
| 20260505021320 | 68 | 102 | 0.0 | 1.0 | 0.00 | 0.00 | 0.00 | 69 | 1005.7 |
| 20260505020816 | 68 | 210 | 1.0 | 1.0 | 0.00 | 0.00 | 0.00 | 70 | 1005.5 |
| 20260505020312 | 68 | 132 | 2.0 | 3.0 | 0.00 | 0.00 | 0.00 | 70 | 1005.7 |
| 20260505015809 | 68 | 198 | 2.0 | 3.0 | 0.00 | 0.00 | 0.00 | 68 | 1005.3 |
| 20260505015306 | 68 | 218 | 1.0 | 1.0 | 0.00 | 0.00 | 0.00 | 68 | 1005.5 |
| 20260505014803 | 68 | 182 | 2.0 | 3.0 | 0.00 | 0.00 | 0.00 | 67 | 1005.4 |
| 20260505014300 | 69 | 144 | 3.0 | 3.0 | 0.00 | 0.00 | 0.00 | 67 | 1005.4 |
| 20260505013757 | 69 | 195 | 1.0 | 1.0 | 0.00 | 0.00 | 0.00 | 67 | 1005.3 |
| 20260505013254 | 69 | 200 | 2.0 | 3.0 | 0.00 | 0.00 | 0.00 | 66 | 1005.2 |
| 20260505012752 | 69 | 234 | 1.0 | 1.0 | 0.00 | 0.00 | 0.00 | 65 | 1005.4 |
| 20260505012249 | 70 | 217 | 2.0 | 3.0 | 0.00 | 0.00 | 0.00 | 65 | 1005.5 |
| 20260505011745 | 70 | 172 | 2.0 | 3.0 | 0.00 | 0.00 | 0.00 | 64 | 1005.3 |
| 20260505011242 | 70 | 107 | 2.0 | 3.0 | 0.00 | 0.00 | 0.00 | 63 | 1005.2 |
| 20260505010738 | 71 | 145 | 1.0 | 1.0 | 0.00 | 0.00 | 0.00 | 63 | 1005.1 |
| 20260505010234 | 71 | 162 | 2.0 | 3.0 | 0.00 | 0.00 | 0.00 | 62 | 1005.2 |
| 20260505005731 | 71 | 212 | 1.0 | 3.0 | 0.00 | 0.00 | 0.00 | 61 | 1004.9 |
| 20260505005228 | 72 | 189 | 3.0 | 3.0 | 0.00 | 0.00 | 0.00 | 61 | 1005.0 |
| 20260505004725 | 72 | 166 | 3.0 | 4.0 | 0.00 | 0.00 | 0.00 | 59 | 1005.1 |
| 20260505004221 | 72 | 239 | 1.0 | 1.0 | 0.00 | 0.00 | 0.00 | 59 | 1005.0 |
| 20260505003719 | 73 | 206 | 3.0 | 4.0 | 0.00 | 0.00 | 0.00 | 58 | 1005.0 |
| 20260505003217 | 73 | 242 | 2.0 | 3.0 | 0.00 | 0.00 | 0.00 | 59 | 1004.9 |
| 20260505002712 | 73 | 178 | 2.0 | 4.0 | 0.00 | 0.00 | 0.00 | 59 | 1005.0 |
| 20260505002210 | 73 | 191 | 5.0 | 7.0 | 0.00 | 0.00 | 0.00 | 58 | 1004.8 |
| 20260505001707 | 73 | 222 | 4.0 | 5.0 | 0.00 | 0.00 | 0.00 | 57 | 1004.9 |
| 20260505001205 | 74 | 186 | 8.0 | 10.0 | 0.00 | 0.00 | 0.00 | 57 | 1005.1 |
| 20260505000702 | 74 | 256 | 3.0 | 4.0 | 0.00 | 0.00 | 0.00 | 57 | 1005.2 |
| 20260505000200 | 74 | 195 | 7.0 | 10.0 | 0.00 | 0.00 | 0.00 | 56 | 1005.1 |
| 20260504235656 | 74 | 201 | 4.0 | 4.0 | 0.00 | 0.00 | 0.00 | 56 | 1004.9 |
| 20260504235152 | 75 | 180 | 6.0 | 10.0 | 0.00 | 0.00 | 0.00 | 55 | 1005.0 |
| 20260504234650 | 75 | 218 | 6.0 | 8.0 | 0.00 | 0.00 | 0.00 | 55 | 1004.9 |
| 20260504234147 | 75 | 183 | 8.0 | 11.0 | 0.00 | 0.00 | 0.00 | 54 | 1004.9 |
| 20260504233642 | 76 | 230 | 10.0 | 11.0 | 0.00 | 0.00 | 0.00 | 53 | 1004.9 |
| 20260504233138 | 76 | 188 | 2.0 | 3.0 | 0.00 | 0.00 | 0.00 | 55 | 1004.9 |
| 20260504232637 | 76 | 213 | 7.0 | 8.0 | 0.00 | 0.00 | 0.00 | 52 | 1004.8 |
| 20260504232133 | 77 | 244 | 13.0 | 23.0 | 0.00 | 0.00 | 0.00 | 51 | 1004.9 |
| 20260504231630 | 77 | 247 | 6.0 | 10.0 | 0.00 | 0.00 | 0.00 | 54 | 1004.8 |
| 20260504231126 | 77 | 191 | 3.0 | 4.0 | 0.00 | 0.00 | 0.00 | 52 | 1004.7 |
| 20260504230622 | 77 | 206 | 10.0 | 14.0 | 0.00 | 0.00 | 0.00 | 51 | 1004.7 |
| 20260504230121 | 77 | 216 | 4.0 | 4.0 | 0.00 | 0.00 | 0.00 | 52 | 1004.7 |
| 20260504225619 | 77 | 253 | 5.0 | 5.0 | 0.00 | 0.00 | 0.00 | 51 | 1004.8 |
| 20260504225115 | 77 | 180 | 9.0 | 14.0 | 0.00 | 0.00 | 0.00 | 51 | 1004.6 |
| 20260504224612 | 78 | 187 | 3.0 | 5.0 | 0.00 | 0.00 | 0.00 | 52 | 1004.7 |
| 20260504224109 | 77 | 220 | 6.0 | 7.0 | 0.00 | 0.00 | 0.00 | 51 | 1004.6 |
| 20260504223606 | 78 | 158 | 9.0 | 11.0 | 0.00 | 0.00 | 0.00 | 52 | 1004.6 |
| 20260504223101 | 78 | 213 | 3.0 | 4.0 | 0.00 | 0.00 | 0.00 | 52 | 1004.6 |
| 20260504222558 | 78 | 217 | 5.0 | 5.0 | 0.00 | 0.00 | 0.00 | 51 | 1004.6 |
| 20260504222056 | 77 | 213 | 5.0 | 7.0 | 0.00 | 0.00 | 0.00 | 52 | 1004.6 |
| 20260504221553 | 77 | 162 | 7.0 | 8.0 | 0.00 | 0.00 | 0.00 | 51 | 1004.8 |
| 20260504221049 | 77 | 224 | 3.0 | 4.0 | 0.00 | 0.00 | 0.00 | 53 | 1004.7 |
| 20260504220546 | 77 | 224 | 4.0 | 8.0 | 0.00 | 0.00 | 0.00 | 50 | 1004.9 |
| 20260504220043 | 77 | 201 | 11.0 | 15.0 | 0.00 | 0.00 | 0.00 | 50 | 1004.8 |
| 20260504215539 | 77 | 197 | 18.0 | 23.0 | 0.00 | 0.00 | 0.00 | 49 | 1004.7 |
| 20260504215037 | 78 | 228 | 11.0 | 14.0 | 0.00 | 0.00 | 0.00 | 48 | 1004.9 |
| 20260504214533 | 78 | 237 | 5.0 | 7.0 | 0.00 | 0.00 | 0.00 | 49 | 1004.8 |
| 20260504214029 | 78 | 213 | 4.0 | 4.0 | 0.00 | 0.00 | 0.00 | 50 | 1004.6 |
| 20260504213526 | 78 | 221 | 4.0 | 5.0 | 0.00 | 0.00 | 0.00 | 51 | 1004.9 |
| 20260504213023 | 78 | 213 | 12.0 | 18.0 | 0.00 | 0.00 | 0.00 | 48 | 1004.9 |
| 20260504212519 | 78 | 193 | 6.0 | 7.0 | 0.00 | 0.00 | 0.00 | 52 | 1005.0 |
| 20260504212017 | 78 | 209 | 8.0 | 10.0 | 0.00 | 0.00 | 0.00 | 50 | 1005.0 |
| 20260504211513 | 79 | 194 | 10.0 | 12.0 | 0.00 | 0.00 | 0.00 | 50 | 1005.1 |
| 20260504211011 | 78 | 197 | 5.0 | 7.0 | 0.00 | 0.00 | 0.00 | 51 | 1005.3 |
| 20260504210508 | 78 | 198 | 5.0 | 7.0 | 0.00 | 0.00 | 0.00 | 51 | 1005.3 |
| 20260504210004 | 78 | 192 | 8.0 | 15.0 | 0.00 | 0.00 | 0.00 | 50 | 1005.2 |
| 20260504205502 | 79 | 238 | 10.0 | 14.0 | 0.00 | 0.00 | 0.00 | 49 | 1005.4 |
| 20260504205000 | 79 | 270 | 3.0 | 4.0 | 0.00 | 0.00 | 0.00 | 51 | 1005.3 |
| 20260504204458 | 79 | 210 | 7.0 | 10.0 | 0.00 | 0.00 | 0.00 | 53 | 1005.6 |
| 20260504203957 | 80 | 193 | 5.0 | 8.0 | 0.00 | 0.00 | 0.00 | 53 | 1005.4 |
| 20260504203454 | 79 | 341 | 4.0 | 7.0 | 0.00 | 0.00 | 0.00 | 49 | 1005.5 |
| 20260504202950 | 79 | 243 | 7.0 | 8.0 | 0.00 | 0.00 | 0.00 | 50 | 1005.6 |
| 20260504202446 | 79 | 222 | 8.0 | 10.0 | 0.00 | 0.00 | 0.00 | 51 | 1005.5 |
| 20260504201943 | 80 | 144 | 11.0 | 14.0 | 0.00 | 0.00 | 0.00 | 49 | 1005.9 |
| 20260504201441 | 79 | 267 | 3.0 | 5.0 | 0.00 | 0.00 | 0.00 | 52 | 1005.9 |